Vertical_Velocity
-4 -1 -0 5 13 2 3 5 -1 1 -0 2 -3 3 5 10 10 10 -1 9 0 -4 -3 -2 -2 2 -2 -2 -0 -0 1 -1 -1 0 0 0 -0 -0 0 0 -0 -1 -1 0 1 -1 -1 2 0
10 1 8 -2 4 -4 6 4 1 3 4 -3 6 -4 -1 20 -1 7 6 -4 2 -1 -1 -3 -3 -1 -1 -2 -2 -0 -1 -2 -1 -1 0 0 -1 0 -1 -1 2 3 -1 -1 -1 -1 1 2 -1
-6 -4 7 5 0 -0 1 2 2 3 -3 -3 2 10 2 13 7 -5 4 -0 3 -3 4 -6 -3 -1 -1 -3 -2 -0 0 1 1 -1 -1 -2 -1 1 3 2 -0 3 1 3 2 1 -0 0 -1
-4 10 3 3 2 12 2 4 0 2 3 1 -4 1 -8 6 -1 17 -4 3 -1 -9 15 -2 -2 -1 1 -2 -1 -1 -1 -0 -1 -0 -0 -0 -1 -4 3 -0 1 -1 -1 0 0 -1 -1 -0 -1
7 14 0 0 5 3 2 0 2 0 1 3 7 11 -1 -7 3 -8 -4 3 -8 28 -10 -3 -1 -1 -1 -1 -2 -1 -2 -1 0 -0 -1 -1 1 0 -1 -0 -1 -1 1 -1 -0 -0 -0 -1 3
5 2 -2 -0 4 3 3 -1 -4 -1 3 -7 5 -5 3 -6 2 1 1 2 -2 3 -8 -6 -2 -1 -1 -0 -1 -0 -1 -0 -1 -0 -1 -0 0 -2 -1 -4 1 0 1 1 -0 -0 -0 -0 -2
13 3 1 1 3 1 3 -2 -3 1 0 9 -4 -5 4 3 -0 0 2 -2 10 -5 2 -2 -0 -1 -0 1 0 -1 -0 0 -2 0 0 -1 -1 -1 -0 5 3 -2 1 3 1 -3 -1 1 -2
5 5 -4 6 -1 12 2 1 0 6 8 -12 6 2 6 2 0 -1 5 -1 9 3 -7 -2 -2 -3 -3 -5 1 -0 -1 0 -2 -2 -1 -1 -0 0 2 -0 -0 0 -2 1 -0 -1 -1 -3 -3
-3 8 1 5 -4 8 -1 -1 -6 -12 -7 9 -6 17 -13 -7 1 3 3 1 -2 6 -3 -3 -6 -6 -4 1 -3 -2 -0 0 -1 -2 -2 -0 0 -1 -5 5 3 -1 -1 1 0 -0 -1 -3 -0
9 -3 5 4 2 2 1 -1 -3 4 3 1 -1 2 6 1 -1 1 1 0 0 7 -2 9 13 -11 -15 20 -4 1 -0 0 -1 14 -11 1 0 5 7 -1 -1 -2 -0 -1 -2 -2 -2 -2 3
-1 3 1 1 -3 -2 1 3 -7 2 4 0 -1 -0 2 -0 2 3 0 -1 -5 -2 4 -3 8 1 -5 18 -6 -9 -9 1 9 -7 -15 42 -5 -7 6 -5 -4 -5 -4 -3 -8 -6 -0 -4 16
4 -0 2 -1 2 -1 -0 -3 3 -5 10 10 -4 -6 -0 0 -0 -3 -0 1 4 -1 -5 1 2 -7 -1 1 -15 -16 15 -14 15 9 -9 -5 -1 7 -5 -9 -7 0 -2 -4 8 11 -6 10 6
1 1 -0 -1 -2 0 -4 0 2 4 -5 6 -4 -2 -1 -0 -0 4 -1 -0 4 -2 -2 5 0 -11 10 -4 -3 26 -5 1 -0 -5 -6 -6 7 -4 12 -7 -3 3 -5 16 -1 30 -6 -7 -3
1 0 -0 -2 0 1 4 4 5 2 1 -1 -0 -1 -1 -2 -2 4 3 2 4 -1 -2 3 0 -5 3 -4 -4 9 -15 -17 24 -10 2 -8 3 0 2 17 17 15 19 -10 -11 -6 0 -6 -5
-1 4 2 -0 -2 0 5 -13 5 -2 -0 -1 1 -1 -1 -2 2 -3 -1 -2 -3 -8 -3 7 -2 -2 -1 -2 -12 -6 -1 10 -9 22 -6 -4 -7 -6 8 -8 -10 10 20 4 9 -2 1 -7 -4
7 8 5 7 -2 -0 14 6 7 -2 -0 1 3 0 0 -0 -3 -4 -1 -0 -2 -0 0 4 -2 3 -10 2 -4 1 -1 11 -8 0 5 -10 7 6 -2 -4 -7 -7 12 -12 -3 -5 -8 -4 -7
5 1 -1 3 -0 0 6 -1 3 -2 1 0 1 -1 0 0 4 -4 -1 1 -1 2 -0 -2 -4 3 1 5 3 -4 2 -11 6 -2 3 -9 -2 -1 1 8 -4 -6 -5 8 -1 -2 -7 -1 -6
2 2 1 -0 -0 -2 -2 -2 -1 2 2 -2 -3 2 0 -1 -4 -5 -2 -3 -1 2 -0 -1 0 -0 4 5 -4 1 6 0 -3 -3 1 2 -1 -2 -6 -7 23 -10 10 8 -1 4 -1 -2 -6
4 2 1 -4 -0 6 0 -0 -2 2 1 3 -0 1 1 1 -4 2 -2 -4 4 -3 2 0 -1 -3 -5 -5 -3 -0 -4 -1 -2 2 -4 1 -0 -1 -4 -0 2 -7 -1 7 1 8 -2 5 4
1 2 -6 -5 -1 10 -1 -5 -3 -0 -0 -2 -4 -2 0 1 4 2 -1 3 -1 -4 0 -1 0 -2 -4 -5 -1 1 -1 2 -2 -3 4 -5 -2 -1 -1 -6 -0 -0 1 8 -5 1 2 2 -1
-2 3 -2 5 -3 -3 9 -3 0 1 -0 -0 -2 5 -2 -3 -1 -0 1 -1 -3 4 -4 -3 -1 -2 -1 2 -4 -2 9 -2 -1 0 3 -4 0 -2 -2 -1 -4 7 -8 8 5 1 -2 4 0
5 -2 2 1 7 -2 4 -7 -2 -2 -1 2 3 -4 0 -6 -0 2 -0 2 -2 1 -3 2 -1 -0 -1 -0 -0 -1 -2 -2 -1 -6 2 2 -4 0 -2 -1 -1 0 -1 12 -1 -4 -2 0 2
-9 3 4 1 2 13 -9 11 -16 2 -1 -1 -2 -3 -1 1 -5 -2 -3 -3 4 -2 4 -2 -0 -0 1 -4 -1 -2 -1 -2 1 1 6 -10 5 -1 -1 -2 1 3 -3 -1 -6 21 3 -1 1
-3 5 2 2 5 10 -11 14 -11 -0 2 -2 -2 1 -8 9 6 -5 -1 2 -3 7 -2 5 0 -3 0 -2 0 -3 -2 -2 1 -1 12 6 -9 5 -10 -3 -2 0 3 -5 -2 1 5 3 5
9 10 -0 10 11 -10 -3 11 -3 -1 -1 1 1 2 -3 -6 2 6 -3 3 0 6 -5 4 -0 -4 -1 1 -1 -2 0 -2 -4 -1 -8 15 -3 3 11 -3 -5 -7 -3 0 2 2 0 5 3
-4 6 5 0 1 -6 1 -2 -16 -3 0 -2 -6 6 -9 2 -3 -1 -1 -5 -2 0 1 -0 -0 -2 -2 -1 -3 -1 1 0 -2 -3 -1 -3 -8 12 11 1 -3 -3 -2 4 -3 3 3 -2 -3
-25 8 -7 11 -0 11 -3 3 11 0 -2 2 2 -4 0 -7 5 1 -1 1 -0 -1 0 -1 6 -2 -2 -1 -1 -3 -0 -2 -5 -3 -2 -7 -2 1 -5 -2 1 0 1 0 1 -2 -1 -0 0
14 -5 14 4 5 -2 -5 -1 -6 -0 1 -0 -1 1 -1 -2 -5 4 3 3 0 -0 -2 -1 -2 -1 0 2 -2 -2 -1 -0 1 -0 -3 1 -1 -6 2 -1 -4 -4 -0 -2 1 -2 2 6 3
10 2 4 16 9 3 -1 -12 2 -2 0 -0 1 -1 4 -1 3 3 2 0 -5 -1 2 -3 -4 1 -1 -1 -0 -2 -2 -0 0 -1 -0 -1 3 1 -2 -0 -2 -1 -1 -0 1 -1 -1 -2 -1
4 0 -0 11 -11 -1 9 -13 1 0 -0 -0 2 -3 3 -1 -3 9 -3 1 -1 0 7 -2 -2 -3 -1 4 2 -2 -1 -1 0 -2 -1 1 -1 -1 0 -0 -2 -0 -2 -4 -3 -4 0 -1 -2
Height
1507 1508 1510 1510 1507 1489 1493 1494 1484 1492 1491 1495 1498 1496 1501 1499 1503 1518 1524 1530 1535 1539 1540 1544 1547 1549 1551 1554 1556 1557 1558 1559 1560 1561 1562 1562 1563 1564 1565 1565 1567 1568 1570 1570 1571 1572 1573 1574 1575
1512 1510 1511 1508 1508 1491 1499 1485 1492 1491 1496 1500 1499 1503 1505 1507 1513 1518 1526 1533 1537 1541 1544 1546 1548 1551 1553 1555 1557 1558 1559 1560 1561 1563 1563 1564 1565 1566 1567 1567 1569 1571 1572 1573 1573 1575 1576 1577 1578
1510 1507 1506 1488 1480 1505 1503 1486 1493 1498 1501 1501 1498 1502 1507 1518 1521 1524 1529 1535 1540 1544 1548 1546 1550 1552 1555 1557 1559 1560 1561 1562 1563 1564 1565 1566 1566 1567 1567 1570 1571 1573 1574 1576 1576 1577 1579 1580 1582
1508 1500 1495 1496 1497 1493 1492 1490 1496 1498 1500 1501 1500 1503 1517 1523 1524 1526 1532 1537 1541 1546 1548 1548 1551 1554 1556 1558 1560 1562 1563 1563 1564 1565 1567 1568 1569 1570 1571 1572 1574 1575 1576 1578 1579 1580 1581 1583 1584
1506 1487 1494 1503 1496 1491 1490 1493 1492 1494 1496 1498 1500 1508 1517 1524 1526 1529 1534 1539 1543 1546 1547 1550 1553 1556 1558 1560 1562 1563 1564 1565 1565 1567 1569 1570 1571 1572 1573 1575 1576 1577 1579 1580 1582 1583 1584 1585 1586
1503 1491 1502 1501 1494 1489 1489 1494 1492 1494 1495 1502 1500 1510 1521 1525 1528 1532 1536 1540 1544 1547 1552 1552 1554 1557 1559 1561 1563 1565 1566 1567 1567 1569 1570 1572 1573 1574 1575 1577 1579 1580 1581 1582 1584 1585 1586 1587 1589
1498 1491 1493 1484 1486 1491 1493 1493 1497 1493 1494 1495 1502 1508 1524 1527 1530 1533 1537 1541 1544 1549 1554 1556 1557 1558 1561 1563 1565 1566 1567 1569 1570 1571 1572 1573 1574 1576 1577 1578 1581 1581 1583 1584 1585 1587 1588 1589 1591
1502 1494 1493 1501 1504 1496 1493 1494 1495 1493 1500 1505 1503 1510 1521 1527 1531 1535 1539 1543 1546 1549 1554 1558 1560 1561 1563 1564 1566 1568 1569 1571 1572 1573 1574 1575 1576 1577 1579 1581 1582 1583 1585 1586 1588 1589 1590 1590 1593
1504 1503 1495 1493 1490 1490 1494 1492 1501 1501 1502 1504 1507 1505 1516 1526 1531 1535 1539 1543 1547 1551 1554 1558 1561 1562 1565 1567 1567 1568 1570 1572 1573 1574 1576 1577 1580 1580 1582 1582 1585 1585 1586 1588 1590 1591 1592 1593 1594
1498 1494 1499 1492 1489 1488 1490 1495 1499 1495 1500 1508 1512 1516 1520 1526 1531 1534 1538 1542 1547 1550 1554 1557 1561 1564 1566 1568 1568 1570 1572 1575 1576 1578 1578 1579 1581 1582 1580 1584 1585 1587 1588 1589 1592 1593 1594 1593 1594
1499 1501 1496 1495 1497 1494 1492 1494 1499 1494 1498 1503 1511 1519 1522 1526 1530 1534 1538 1542 1546 1550 1553 1557 1561 1564 1567 1567 1569 1572 1574 1576 1576 1578 1579 1582 1582 1582 1586 1586 1587 1589 1590 1592 1593 1594 1596 1593 1582
1499 1497 1497 1497 1497 1497 1495 1497 1496 1501 1502 1504 1511 1518 1522 1526 1530 1533 1537 1541 1544 1549 1553 1556 1560 1563 1566 1567 1570 1571 1574 1575 1577 1578 1579 1580 1583 1585 1585 1586 1588 1589 1591 1592 1594 1596 1596 1598 1598
1497 1498 1496 1496 1496 1496 1496 1495 1497 1500 1505 1506 1511 1518 1523 1526 1530 1533 1537 1541 1544 1548 1552 1555 1558 1562 1565 1567 1569 1570 1574 1575 1576 1578 1579 1580 1582 1585 1586 1586 1589 1591 1592 1594 1594 1593 1596 1598 1601
1502 1499 1495 1494 1493 1491 1487 1485 1490 1500 1504 1508 1513 1517 1522 1525 1528 1532 1536 1539 1543 1546 1551 1554 1557 1560 1563 1566 1568 1571 1573 1575 1574 1577 1579 1579 1581 1583 1586 1587 1588 1590 1591 1590 1592 1593 1595 1596 1597
1503 1498 1491 1493 1492 1486 1492 1485 1480 1497 1503 1507 1511 1516 1520 1523 1526 1530 1534 1537 1541 1545 1548 1552 1556 1559 1561 1564 1566 1569 1572 1574 1576 1576 1577 1579 1579 1581 1584 1585 1586 1589 1591 1592 1593 1593 1593 1593 1595
1499 1494 1496 1493 1492 1489 1485 1494 1487 1496 1501 1505 1509 1513 1517 1520 1524 1529 1532 1536 1539 1543 1546 1550 1554 1557 1559 1563 1565 1568 1571 1573 1574 1576 1577 1578 1579 1579 1581 1583 1586 1588 1590 1591 1591 1590 1592 1593 1593
1493 1500 1498 1496 1492 1491 1488 1490 1483 1493 1497 1502 1506 1510 1513 1518 1521 1526 1530 1534 1537 1541 1544 1548 1551 1555 1557 1561 1564 1566 1569 1571 1573 1575 1576 1575 1579 1579 1580 1583 1585 1586 1589 1589 1589 1590 1590 1592 1591
1496 1494 1492 1499 1491 1492 1489 1484 1480 1483 1491 1496 1503 1505 1509 1513 1517 1522 1527 1531 1535 1539 1542 1545 1548 1552 1556 1559 1562 1564 1567 1569 1571 1573 1575 1574 1577 1579 1580 1581 1584 1586 1587 1587 1588 1588 1589 1588 1588
1490 1498 1501 1492 1488 1495 1491 1486 1479 1475 1484 1490 1495 1500 1505 1509 1514 1518 1522 1527 1531 1536 1539 1542 1545 1548 1552 1556 1559 1562 1563 1566 1568 1571 1572 1573 1574 1576 1578 1581 1581 1583 1585 1586 1585 1586 1586 1587 1588
1495 1501 1499 1490 1486 1492 1491 1489 1479 1474 1475 1479 1485 1492 1499 1504 1508 1513 1517 1521 1526 1531 1535 1539 1541 1543 1548 1552 1556 1559 1561 1564 1566 1568 1569 1570 1571 1573 1575 1577 1580 1581 1582 1583 1583 1583 1584 1584 1585
1497 1499 1496 1495 1487 1488 1489 1489 1476 1468 1474 1477 1478 1480 1488 1496 1501 1507 1512 1516 1521 1526 1530 1534 1537 1540 1544 1549 1553 1556 1559 1561 1563 1565 1567 1567 1569 1571 1573 1575 1576 1578 1580 1580 1580 1580 1581 1582 1582
1500 1486 1489 1493 1499 1507 1475 1505 1478 1469 1468 1467 1470 1475 1479 1486 1495 1501 1507 1511 1516 1521 1527 1531 1534 1537 1540 1544 1549 1551 1554 1556 1560 1562 1565 1566 1566 1569 1571 1572 1573 1573 1576 1577 1577 1577 1578 1579 1580
1496 1488 1491 1493 1497 1494 1487 1495 1479 1465 1470 1464 1469 1470 1473 1477 1483 1492 1499 1505 1511 1517 1522 1527 1531 1534 1537 1539 1544 1547 1550 1554 1557 1560 1562 1563 1565 1566 1568 1569 1569 1571 1571 1573 1575 1575 1573 1576 1577
1490 1493 1495 1493 1493 1508 1485 1484 1476 1468 1464 1462 1463 1466 1471 1472 1476 1485 1494 1500 1506 1512 1518 1523 1527 1529 1532 1534 1538 1542 1546 1550 1554 1556 1558 1561 1563 1564 1563 1565 1566 1567 1567 1569 1571 1570 1571 1572 1573
1491 1494 1510 1509 1503 1503 1468 1478 1469 1461 1462 1465 1465 1467 1470 1474 1474 1479 1488 1494 1501 1506 1512 1518 1522 1525 1529 1531 1533 1537 1541 1544 1548 1552 1554 1557 1558 1559 1559 1559 1561 1563 1564 1565 1566 1566 1567 1568 1568
1489 1489 1498 1516 1500 1480 1456 1487 1473 1459 1462 1465 1466 1464 1470 1470 1472 1476 1483 1490 1497 1502 1508 1513 1517 1521 1525 1528 1529 1533 1536 1540 1542 1546 1550 1552 1554 1556 1558 1556 1556 1558 1559 1561 1562 1562 1563 1564 1565
1487 1491 1475 1485 1474 1482 1467 1461 1459 1459 1463 1462 1462 1466 1469 1470 1470 1474 1480 1486 1493 1499 1504 1509 1514 1517 1521 1523 1526 1528 1531 1535 1538 1541 1544 1547 1549 1552 1554 1554 1555 1555 1555 1557 1557 1559 1559 1560 1561
1484 1475 1489 1483 1510 1510 1476 1476 1474 1464 1463 1465 1466 1467 1471 1472 1472 1473 1477 1483 1490 1496 1501 1506 1510 1514 1516 1520 1522 1524 1526 1529 1532 1536 1538 1542 1544 1545 1548 1548 1550 1550 1551 1552 1553 1555 1554 1556 1556
1480 1485 1481 1472 1470 1488 1494 1477 1445 1454 1463 1469 1467 1473 1474 1475 1472 1472 1476 1481 1486 1491 1496 1501 1506 1510 1513 1516 1519 1521 1523 1525 1527 1530 1532 1535 1538 1540 1541 1542 1544 1545 1546 1547 1547 1549 1549 1550 1551
1467 1469 1472 1483 1489 1476 1475 1474 1455 1461 1464 1469 1471 1478 1477 1476 1475 1473 1475 1479 1483 1487 1491 1495 1500 1505 1509 1512 1515 1517 1519 1521 1524 1525 1528 1530 1532 1534 1536 1537 1538 1539 1541 1542 1542 1544 1545 1545 1545